Location: Grambois
(43.7619°N, 5.5873°E)
Time: 23:20:06
(UTC+00:00)

BREEZE-M DEB (TANK) - Visible Passes

Search period start: 01 October 2020 00:00
Search period end: 11 October 2020 00:00
Orbit: 333 x 12042 km, 49.7° (Epoch: 01 October)

Date Brightness Start Highest point End Pass type
(mag) Time Alt. Az. Time Alt. Az. Time Alt. Az.
01 Oct 8.7 03:15:13 10° S 04:46:02 60° ESE 05:24:12 10° ENE visible
02 Oct 8.9 02:36:22 10° S 04:03:01 52° ESE 04:43:26 10° ENE visible
03 Oct 8.9 01:58:57 10° SSE 03:20:34 45° ESE 04:02:19 10° ENE visible
04 Oct 9.0 01:23:18 10° SSE 02:38:48 38° ESE 03:20:42 10° ENE visible
05 Oct 9.0 00:49:59 10° SE 01:57:45 31° E 02:38:18 10° ENE visible
05 Oct 8.2 04:40:27 10° SSW 06:20:03 84° SE 06:50:31 10° ENE visible
06 Oct 9.1 00:20:01 10° SE 01:17:28 24° E 01:54:39 10° ENE visible
06 Oct 8.4 03:57:42 10° SSW 05:35:49 78° SE 06:10:17 10° ENE visible
06 Oct 9.2 23:55:13 10° ESE 00:37:58 18° E 01:08:32 10° ENE visible
07 Oct 8.5 03:16:10 10° SSW 04:51:38 71° SE 05:29:54 10° ENE visible
07 Oct 9.4 23:42:11 10° E 23:59:16 11° E 00:13:59 10° ENE visible
08 Oct 8.6 02:35:46 10° S 04:07:46 64° ESE 04:49:19 10° ENE visible
09 Oct 8.8 01:56:30 10° S 03:24:24 56° ESE 04:08:30 10° ENE visible
10 Oct 8.8 01:18:29 10° SSE 02:41:42 49° ESE 03:27:20 10° NE visible
